Location: Unspecified
(40.7945°N, 0.0000°E)
Time: 23:09:23
(UTC+00:00)

Explorer 11/Cluster Stage 4 - Pass Details

Date: 28 January 2021
Orbit: 467 x 1257 km, 28.8° (Epoch: 25 February)

Event Time Altitude Azimuth Distance (km) Brightness Sun altitude
Rises 19:32:08 0° 231° (SW) 2,882 10.3 -26.4°
Reaches altitude 10° 19:34:47 10° 215° (SW) 2,102 9.2 -26.9°
Enters shadow 19:37:31 20° 181° (S) 1,675 8.2 -27.5°
